CST,Max TemperatureF,Mean TemperatureF,Min TemperatureF,Max Dew PointF,MeanDew PointF,Min DewpointF,Max Humidity, Mean Humidity, Min Humidity, Max Sea Level PressureIn, Mean Sea Level PressureIn, Min Sea Level PressureIn, Max VisibilityMiles, Mean VisibilityMiles, Min VisibilityMiles, Max Wind SpeedMPH, Mean Wind SpeedMPH, Max Gust SpeedMPH,PrecipitationIn, CloudCover, Events, WindDirDegrees
2013-2-1,73,70,68,66,60,52,83,69,53,30.21,30.14,30.09,7,7,5,17,12,23,0.00,7,,53
2013-2-2,80,74,68,66,64,59,83,75,61,30.17,30.09,30.02,8,7,7,10,5,,0.00,4,,74
2013-2-3,78,72,66,68,58,46,88,67,47,30.16,30.09,30.02,8,7,2,17,7,28,2.25,3,Rain,44
2013-2-4,77,68,60,61,52,46,88,57,41,30.10,30.01,29.91,8,8,7,10,5,,0.00,2,,58
2013-2-5,80,71,62,68,61,54,94,69,44,30.02,29.97,29.92,8,8,7,9,3,,0.00,2,,123
2013-2-6,82,72,62,63,56,52,73,58,39,30.07,29.99,29.93,8,7,7,10,3,,0.00,2,,119
2013-2-7,82,74,64,75,60,54,100,64,42,30.02,29.96,29.89,8,8,7,14,6,21,0.00,2,,138
2013-2-8,84,72,60,72,59,48,100,69,40,30.07,30.01,29.95,8,8,7,8,2,,0.00,2,,140
2013-2-9,82,70,59,68,60,48,94,71,58,30.11,30.04,30.00,8,8,7,14,3,,0.00,2,,99
2013-2-10,82,72,62,68,61,50,78,68,58,30.11,30.04,29.98,8,8,7,18,6,23,0.00,2,,122
2013-2-11,82,75,68,68,64,63,88,71,51,30.09,30.03,29.97,8,7,7,18,8,24,0.00,3,,122
2013-2-12,84,78,71,66,66,64,83,72,55,30.06,29.98,29.90,8,7,7,16,8,,0.00,2,,134
2013-2-13,84,76,68,68,65,57,83,69,51,29.98,29.92,29.86,7,7,7,15,8,,0.00,3,,143
2013-2-14,86,77,68,68,64,61,88,70,43,29.99,29.91,29.84,8,7,7,14,4,,0.00,2,,159
2013-2-15,84,76,68,68,64,55,83,72,51,29.99,29.93,29.86,8,7,5,12,2,,0.65,4,Rain,162
2013-2-16,80,72,64,68,56,46,94,62,30,30.19,30.06,29.94,8,8,7,23,13,29,0.00,3,Rain,346
2013-2-17,75,68,59,54,45,37,72,46,29,30.24,30.18,30.13,8,8,7,18,13,25,0.00,2,,27
2013-2-18,73,65,57,54,45,39,63,47,33,30.20,30.12,30.04,8,8,7,18,7,23,0.00,3,,89
2013-2-19,78,68,57,59,53,41,68,56,44,30.11,30.05,30.01,8,7,7,14,4,,0.00,3,,73
2013-2-20,80,72,64,70,62,52,100,73,58,30.07,29.99,29.92,8,7,7,14,5,25,0.00,2,,92
2013-2-21,82,74,66,68,63,59,83,70,51,30.01,29.94,29.89,8,8,7,17,6,,0.00,3,,125
2013-2-22,84,76,68,68,64,63,83,69,51,30.01,29.94,29.88,8,8,7,16,6,23,0.00,3,,137
2013-2-23,84,78,69,66,63,61,83,66,45,29.98,29.91,29.83,8,8,7,21,9,21,0.00,2,,135
2013-2-24,84,75,66,66,63,59,88,69,51,29.97,29.89,29.82,8,7,7,16,5,22,0.00,2,,134
2013-2-25,82,76,71,64,63,61,73,63,51,29.84,29.76,29.68,8,8,7,75,11,24,0.00,3,,142
2013-2-26,82,76,69,70,66,63,83,71,58,29.96,29.84,29.73,8,8,7,14,7,,1.15,4,,141
2013-2-27,86,78,69,70,65,61,83,70,48,29.97,29.91,29.86,8,8,7,12,5,,0.00,4,,135
2013-2-28,78,71,64,68,63,59,94,75,65,30.01,29.93,29.88,7,6,4,8,2,,1.85,6,Rain,91